Погода в Кендари

Индонезия     3°59′38″S   122°31′33″E
темп.,
°C
ветер,
м/с
пор.,
м/с
влажн.,
%
обл.,
%
осадки,
мм/ч
давл.,
гПа
погр.,
м
20 января, чт
чт2023:00+23юз31095100 0.6 1009439
02:00+23зюз2793100 0.4 1007322
05:00+23зюз1395100 0.0 1007111
08:00+25зюз258671 0.0 1009333
11:00+28зсз2570100 0.0 1008828
14:00+30зсз256377 0.5 10061445
17:00+27сз0383100 2.0 1006277
20:00+24з1192100 2.7 100829
21 января, пт
пт2123:00+23зюз1295100 0.0 100945
02:00+23зюз1295100 0.1 100768
05:00+23юз1295100 0.0 100776
08:00+24зюз2591100 0.0 1009296
11:00+24юз1391100 0.1 1009169
14:00+30зюз2463100 0.3 10061187
17:00+25юз3986100 0.9 1007587
20:00+23зюз2693100 1.3 1009255
22 января, сб
сб2223:00+23зюз1495100 0.1 1009119
02:00+23зюз1396100 0.1 100796
05:00+22зюз1196100 0.0 100732
08:00+26зсз117998 0.0 1009262
11:00+30ссз126198 0.0 10081074
14:00+32зсз165181 0.2 10051931
17:00+28з267068 0.4 1005705
20:00+25ююз0185100 0.4 100758
23 января, вс
вс2323:00+24зюз1190100 0.0 100828
02:00+24зюз1193100 0.1 100749
05:00+23зюз1196100 0.1 100723
08:00+27сз118056 0.1 1008342
11:00+32ссв225815 0.0 10061481
14:00+32св335774 0.1 10041411
17:00+28св24787 0.9 1004236
20:00+25всв119218 1.5 100745
24 января, пн
пн2423:00+24з119481 0.4 100746
02:00+23з119748 1.0 100517
05:00+23з119767 0.1 100620
08:00+27з11855 0.1 1007270
11:00+32с115740 0.0 10051365
14:00+32св325947 0.1 10021056
17:00+29всв23715 0.3 1003368
20:00+25всв00885 0.9 100513